Weather History for KRIL - June, 2011

Change the Weather History Date:

Thursday, June 30, 2011

  Actual Average Record
Temperature  
Mean Temperature 64 °F 71 °F  
Max Temperature 73 °F 89 °F 102 °F (1990)
Min Temperature 54 °F 52 °F 32 °F (1953)
Degree Days  
Heating Degree Days 1 0  
Month to date heating degree days 57  
Since 1 June heating degree days 59  
Since 1 July heating degree days 6625  
Cooling Degree Days 0 6  
Month to date cooling degree days 95  
Year to date cooling degree days 102  
Since 1 June cooling degree days 95  
Growing Degree Days 14 (Base 50)    
Moisture  
Dew Point 51 °F    
Average Humidity 62    
Maximum Humidity 86    
Minimum Humidity 44    
Precipitation  
Precipitation 0.36 in 0.02 in 0.36 in (2011)
Month to date precipitation 1.02  
Year to date precipitation 6.44  
Sea Level Pressure  
Sea Level Pressure 29.91 in    
Wind  
Wind Speed 8 mph (South)    
Max Wind Speed 24 mph    
Max Gust Speed 43 mph    
Visibility 9 miles    
Events Rain , Thunderstorm    
T = Trace of Precipitation, MM = Missing Value Source: NWS Daily Summary

Daily Weather History Graph

Daily Weather History Graph

Search for Another Location

Airport or City:

Trip Planner

Search our weather history database for the weather conditions in past years. The results will help you decide how hot, cold, wet, or windy it might be!

Date:

Astronomy

Jun. 30, 2011 Rise Set
Actual Time 5:46 AM MDT 8:42 PM MDT
Civil Twilight 5:14 AM MDT 9:14 PM MDT
Nautical Twilight 4:33 AM MDT 9:55 PM MDT
Astronomical Twilight 3:46 AM MDT 10:42 PM MDT
Moon 5:03 AM MDT (6/30) 8:17 PM MDT (6/30)
Length of Visible Light 16h 00m
Length of Day
14h 55m
Waning Crescent, 0% of the Moon is Illuminated
Jun 30
Waning Crescent
Jul 1
New
Jul 8
First Quarter
Jul 15
Full
Jul 22
Last Quarter

Hourly Weather History & Observations

Time (MDT) Temp. Dew Point Humidity Pressure Visibility Wind Dir Wind Speed Gust Speed Precip Events Conditions
12:53 AM 64.0 °F 54.0 °F 70% 29.80 in 10.0 mi Calm Calm - 0.00 in   Partly Cloudy
1:53 AM 64.0 °F 55.0 °F 73% 29.79 in 10.0 mi SSW 4.6 mph - N/A   Partly Cloudy
2:53 AM 64.9 °F 54.0 °F 68% 29.80 in 10.0 mi West 4.6 mph - N/A   Scattered Clouds
3:53 AM 64.0 °F 54.0 °F 70% 29.78 in 10.0 mi South 8.1 mph - N/A   Partly Cloudy
4:53 AM 61.0 °F 54.0 °F 78% 29.78 in 10.0 mi ENE 3.5 mph - N/A   Clear
5:53 AM 61.0 °F 55.0 °F 81% 29.80 in 10.0 mi Calm Calm - N/A   Partly Cloudy
6:53 AM 60.1 °F 55.0 °F 83% 29.82 in 10.0 mi East 3.5 mph - N/A   Clear
7:53 AM 63.0 °F 53.1 °F 70% 29.81 in 10.0 mi Variable 3.5 mph - N/A   Clear
8:53 AM 66.9 °F 54.0 °F 63% 29.83 in 10.0 mi Calm Calm - N/A   Clear
9:53 AM 72.0 °F 52.0 °F 49% 29.80 in 10.0 mi WNW 11.5 mph - N/A Thunderstorm Clear
10:26 AM 68.0 °F 48.2 °F 49% 30.00 in 1.8 mi WSW 20.7 mph 28.8 mph 0.14 in Rain , Thunderstorm Heavy Thunderstorms and Rain
10:28 AM 64.4 °F 48.2 °F 56% 30.00 in 1.2 mi WSW 19.6 mph 28.8 mph 0.19 in Rain , Thunderstorm Heavy Thunderstorms and Rain
10:36 AM 64.4 °F 50.0 °F 59% 29.99 in 1.2 mi South 18.4 mph 27.6 mph 0.29 in Rain , Thunderstorm Light Thunderstorms and Rain
10:40 AM 66.2 °F 48.2 °F 52% 29.99 in 3.0 mi SSE 21.9 mph 35.7 mph 0.29 in Rain , Thunderstorm Light Thunderstorms and Rain
10:48 AM 68.0 °F 46.4 °F 46% 29.98 in 8.0 mi South 23.0 mph 35.7 mph 0.30 in Rain , Thunderstorm Light Thunderstorms and Rain
10:53 AM 69.1 °F 46.0 °F 44% 29.78 in 9.0 mi SSW 20.7 mph 31.1 mph 0.30 in Rain , Thunderstorm Light Thunderstorms and Rain
11:04 AM 69.8 °F 50.0 °F 49% 29.99 in 10.0 mi South 5.8 mph - 0.00 in Thunderstorm Thunderstorm
11:12 AM 69.8 °F 51.8 °F 53% 29.98 in 10.0 mi WNW 10.4 mph - 0.00 in Thunderstorm Scattered Clouds
11:33 AM 66.2 °F 53.6 °F 64% 29.98 in 10.0 mi East 10.4 mph - 0.00 in Rain Light Rain
11:53 AM 64.9 °F 53.1 °F 65% 29.81 in 10.0 mi ENE 4.6 mph - 0.01 in Rain , Thunderstorm Light Rain
12:34 PM 66.2 °F 51.8 °F 60% 29.98 in 10.0 mi East 11.5 mph - 0.00 in   Partly Cloudy
12:53 PM 68.0 °F 54.0 °F 61% 29.78 in 10.0 mi East 10.4 mph - 0.00 in   Partly Cloudy
1:12 PM 73.4 °F 57.2 °F 57% 29.93 in 10.0 mi East 17.3 mph 23.0 mph N/A Thunderstorm Clear
1:51 PM 69.8 °F 53.6 °F 56% 29.99 in 10.0 mi Calm Calm - 0.00 in   Scattered Clouds
1:53 PM 70.0 °F 52.0 °F 53% 29.80 in 10.0 mi SW 3.5 mph - 0.00 in   Scattered Clouds
2:25 PM 62.6 °F 46.4 °F 55% 30.04 in 10.0 mi NNW 24.2 mph 42.6 mph 0.05 in Rain , Thunderstorm Light Thunderstorms and Rain
2:42 PM 60.8 °F 46.4 °F 59% 30.04 in 10.0 mi NNW 15.0 mph 38.0 mph 0.05 in Rain Light Rain
2:53 PM 60.1 °F 46.9 °F 62% 29.87 in 10.0 mi North 13.8 mph 25.3 mph 0.05 in Rain Light Rain
3:53 PM 63.0 °F 48.0 °F 58% 29.88 in 10.0 mi NW 20.7 mph 27.6 mph 0.00 in   Scattered Clouds
4:40 PM 62.6 °F 48.2 °F 59% 30.03 in 10.0 mi West 13.8 mph - 0.00 in Rain , Thunderstorm Light Thunderstorms and Rain
4:53 PM 64.9 °F 50.0 °F 58% 29.88 in 10.0 mi West 10.4 mph - 0.00 in Rain , Thunderstorm Light Thunderstorms and Rain
4:56 PM 64.4 °F 50.0 °F 59% 30.04 in 10.0 mi West 8.1 mph 16.1 mph 0.00 in Thunderstorm Partly Cloudy
5:19 PM 66.2 °F 46.4 °F 49% 30.05 in 10.0 mi NW 4.6 mph - 0.00 in   Clear
5:53 PM 66.0 °F 48.0 °F 52% 29.88 in 10.0 mi ESE 3.5 mph - 0.00 in   Partly Cloudy
6:53 PM 66.0 °F 50.0 °F 56% 29.89 in 10.0 mi SE 5.8 mph - N/A   Scattered Clouds
7:53 PM 64.0 °F 52.0 °F 65% 29.91 in 10.0 mi NE 3.5 mph - N/A   Scattered Clouds
8:53 PM 62.1 °F 52.0 °F 70% 29.92 in 10.0 mi ESE 3.5 mph - N/A   Clear
9:53 PM 60.1 °F 53.1 °F 78% 29.94 in 10.0 mi Calm Calm - N/A   Clear
10:53 PM 55.9 °F 51.1 °F 84% 29.96 in 10.0 mi South 4.6 mph - N/A   Clear
11:53 PM 54.0 °F 50.0 °F 86% 30.00 in 10.0 mi ESE 4.6 mph - N/A   Clear